FW0523 Weather Reports


time (UTC)temp
C
wind
direction
speed
KPH
gust
KPH
rain 1hr
cm
rain 24hr
cm
rain mn
cm
humidity
%
barometer
mb
20260505070803 9 360 0.0 0.0 0.00 0.00 0.00 47 1013.9
20260505065804 9 240 3.2 4.8 0.00 0.00 0.00 46 1014.2
20260505064803 9 360 4.8 14.5 0.00 0.00 0.00 45 1014.3
20260505062703 9 78 1.6 12.9 0.00 0.00 0.00 45 1013.9
20260505061704 9 360 0.0 0.0 0.00 0.00 13.64 45 1014.2
20260505060704 9 83 0.0 16.1 0.00 0.00 13.64 44 1014.2
20260505055703 10 152 1.6 14.5 0.00 0.00 13.64 44 1014.0
20260505054703 10 360 1.6 16.1 0.00 0.00 13.64 42 1014.2
20260505053704 10 281 3.2 16.1 0.00 0.00 13.64 41 1014.2
20260505052702 10 140 4.8 8.0 0.00 0.00 13.64 41 1014.3
20260505051703 10 90 0.0 14.5 0.00 0.00 13.64 40 1014.3
20260505050704 10 114 0.0 8.0 0.00 0.00 13.64 39 1014.2
20260505041604 11 360 0.0 12.9 0.00 0.00 13.64 36 1014.7
20260505040604 11 48 3.2 14.5 0.00 0.00 13.64 35 1014.7
20260505034503 12 73 4.8 14.5 0.00 0.00 13.64 29 1014.6
20260505033503 12 229 6.4 16.1 0.00 0.00 13.64 28 1014.4
20260505032504 12 360 0.0 14.5 0.00 0.00 13.64 28 1014.4
20260505031502 12 223 6.4 14.5 0.00 0.00 13.64 30 1014.3
20260505030503 12 198 9.7 12.9 0.00 0.00 13.64 30 1014.3
20260505024403 12 202 0.0 14.5 0.00 0.00 13.64 32 1014.0
20260505023404 12 360 0.0 16.1 0.00 0.00 13.64 34 1014.0
20260505022403 13 264 1.6 14.5 0.00 0.00 13.64 31 1014.0
20260505021403 13 152 0.0 14.5 0.00 0.00 13.64 28 1013.9
20260505020404 13 189 4.8 14.5 0.00 0.00 13.64 26 1014.0
20260505015403 13 116 4.8 16.1 0.00 0.00 13.64 26 1013.9
20260505014403 14 200 6.4 16.1 0.00 0.00 13.64 26 1013.9
20260505013404 14 256 8.0 16.1 0.00 0.00 13.64 26 1013.8
20260505012402 15 202 1.6 8.0 0.00 0.00 13.64 25 1013.6
20260505011403 15 246 4.8 8.0 0.00 0.00 13.64 26 1013.5
20260505005304 15 360 0.0 14.5 0.00 0.00 13.64 25 1013.2
20260505004304 15 71 1.6 14.5 0.00 0.00 13.64 25 1013.4
20260505003304 15 322 4.8 11.3 0.00 0.00 13.64 23 1013.4
20260505002304 16 343 0.0 3.2 0.00 0.00 13.64 24 1013.5
20260505000204 16 267 6.4 16.1 0.00 0.00 13.64 24 1013.4
20260504235204 16 261 3.2 14.5 0.00 0.00 13.64 24 1013.4
20260504234202 16 360 1.6 16.1 0.00 0.00 13.64 26 1013.6
20260504233203 16 360 1.6 14.5 0.00 0.00 13.64 26 1013.5
20260504232203 16 161 1.6 11.3 0.00 0.00 13.64 26 1013.4
20260504231202 16 288 4.8 16.1 0.00 0.00 13.64 24 1013.5
20260504230203 16 301 4.8 14.5 0.00 0.00 13.64 26 1013.4
20260504225204 16 360 1.6 6.4 0.00 0.00 13.64 25 1013.4
20260504224202 16 360 0.0 16.1 0.00 0.00 13.64 27 1013.4
20260504223203 16 7 0.0 11.3 0.00 0.00 13.64 27 1013.4
20260504222203 16 319 3.2 16.1 0.00 0.00 13.64 27 1013.6
20260504221204 16 329 1.6 14.5 0.00 0.00 13.64 26 1013.5
20260504220204 16 287 0.0 0.0 0.00 0.00 13.64 27 1013.6
20260504215203 16 119 1.6 9.7 0.00 0.00 13.64 28 1013.8
20260504213104 16 42 4.8 6.4 0.00 0.00 13.64 30 1013.9
20260504212104 15 349 0.0 4.8 0.00 0.00 13.64 33 1013.9
20260504211103 15 16 4.8 9.7 0.00 0.00 13.64 35 1014.2
20260504205104 15 326 0.0 6.4 0.00 0.00 13.64 39 1014.4
20260504204103 15 343 6.4 14.5 0.00 0.00 13.64 41 1014.7
20260504203103 15 0 3.2 9.7 0.00 0.00 13.64 42 1014.7
20260504202104 15 344 1.6 12.9 0.00 0.00 13.64 41 1014.8
20260504201102 15 350 4.8 4.8 0.00 0.00 13.64 42 1014.8
20260504192903 13 343 6.4 14.5 0.00 0.00 13.64 47 1015.1
20260504191904 14 0 4.8 19.3 0.00 0.00 13.64 46 1015.2
20260504190904 14 350 6.4 9.7 0.00 0.00 13.64 46 1015.2
20260504185903 16 11 6.4 12.9 0.00 0.00 13.64 40 1015.4
20260504184903 16 304 3.2 16.1 0.00 0.00 13.64 32 1015.2
20260504183904 16 264 4.8 16.1 0.00 0.00 13.64 33 1015.6
20260504181804 15 21 0.0 12.9 0.00 0.00 13.64 37 1016.0
20260504174604 14 328 4.8 16.1 0.00 0.00 13.64 43 1016.7
20260504173603 13 294 4.8 20.9 0.00 0.00 13.64 48 1017.0
20260504172604 13 127 4.8 12.9 0.00 0.00 13.64 49 1017.0
20260504171604 13 7 6.4 16.1 0.00 0.00 13.64 45 1016.6
20260504160403 11 336 1.6 16.1 0.00 0.00 13.64 59 1017.5
20260504150304 9 123 0.0 0.0 0.00 0.00 13.64 78 1017.9
20260504141302 8 360 3.2 16.1 0.00 0.00 13.64 82 1018.0
20260504140303 7 196 0.0 0.0 0.00 0.00 13.64 83 1018.2
20260504130304 6 69 6.4 8.0 0.00 0.00 13.64 84 1018.3
20260504120104 6 216 4.8 14.5 0.00 0.00 13.64 83 1018.7
20260504110104 6 1 0.0 1.6 0.00 0.00 13.64 82 1019.9
20260504080603 7 360 0.0 11.3 0.00 0.00 9.47 74 1020.0